[[{"header":{"parameterUnit":"m.s-1","parameterCategory":1,"la1":30.2991,"la2":30.254,"lo1":-89.0895,"lo2":-89.0444,"dy":0.0017,"dx":0.0017,"nx":28,"ny":28,"refTime":"2024-08-01T09:00:00:Z","depth":0,"parameterNumber":2,"parameterNumberName":"U-component_of_WINDS"},"data":[0,0,0,0,0,0,0,0,0,0,0,0,0,0,0,0,0,0,0,0,0,0,0,0,0,0,0,0,0,0,0,0,0,0,0,0,0,0,0,0,0,0,0,0,0,0,0,0,0,0,0,0,0,0,0,0,0,0,2.0181,2.0182,0,2.0289,2.0291,2.0292,2.0296,2.0295,2.0293,2.0292,2.0407,2.0411,2.0416,0,0,0,0,0,0,0,0,0,0,0,0,0,1.998,1.9983,2.018,2.0182,2.0183,2.0289,2.0291,2.0292,2.0296,2.0295,2.0293,2.0291,2.0406,2.0411,2.0416,0,0,0,0,0,0,0,0,0,0,0,0,0,2.0076,1.9984,2.018,2.0198,2.02,2.0289,2.0291,2.0293,2.0297,2.0295,2.0293,2.0291,2.0404,2.041,2.0417,2.0496,0,0,2.0436,2.0439,0,0,0,0,0,0,0,0,2.007,2.0083,2.0194,2.0197,2.02,2.0277,2.0262,2.0361,2.0297,2.026,2.0292,2.029,2.0366,2.0375,2.04,2.0501,2.0506,2.0437,2.0441,2.0444,2.0445,0,0,0,0,0,0,0,2.0063,2.0078,2.0224,2.0195,2.0199,2.0202,2.0213,2.0281,2.0323,2.0263,2.0264,2.0276,2.0367,2.0394,2.0403,2.0508,2.0437,2.0442,2.0446,2.0449,2.0681,2.0683,0,0,0,0,0,0,2.0053,2.0073,2.022,2.0227,2.0129,2.0207,2.022,2.0254,2.0322,2.033,2.0278,2.0276,2.0384,2.0395,2.0407,2.0504,2.0443,2.045,2.0453,2.0678,2.0681,2.0684,0,0,0,0,0,0,2.0048,2.0066,2.0216,2.015,2.0169,2.0212,2.0251,2.0258,2.0284,2.0333,2.0341,2.0297,2.0383,2.0398,2.0474,2.0508,2.0452,2.0458,2.0676,2.0679,2.0683,2.07,0,0,0,0,0,0,2.0043,2.0064,2.0094,2.0151,2.0173,2.028,2.0253,2.0261,2.0295,2.0294,2.0353,2.0362,2.0382,2.0464,2.048,2.0516,2.0463,2.0673,2.0677,2.0681,2.0696,2.0703,2.0709,0,0,0,0,0,2.0036,2.0095,2.0095,2.0113,2.021,2.0282,2.0294,2.0316,2.0298,2.0328,2.036,2.036,2.0502,2.0472,2.049,2.0528,2.0671,2.0676,2.0681,2.0693,2.0702,2.0709,0,0,0,0,0,0,2.0042,2.0103,2.0104,2.0183,2.0227,2.0282,2.0321,2.0324,2.0375,2.0372,2.0398,2.0412,2.0487,2.0516,2.0481,2.0609,2.0584,2.0594,2.0588,2.0596,2.0603,2.0594,2.0469,0,0,0,0,0,2.0052,2.0104,2.0155,2.022,2.0242,2.0278,2.031,2.0323,2.037,2.0389,2.0426,2.0472,2.0528,2.0564,2.0617,2.0701,2.0714,2.0736,2.0743,2.0748,2.0755,2.0802,2.0813,2.0701,2.0701,2.0701,0,0,2.0075,2.0115,2.0146,2.0222,2.0258,2.0312,2.0294,2.0351,2.0392,2.0398,2.0471,2.05,2.0554,2.0634,2.0672,2.0661,2.0789,2.0755,2.0758,2.0763,2.0809,2.0819,2.0829,2.0704,2.0704,2.0703,0,0,2.0143,2.0178,2.0236,2.0273,2.0326,2.035,2.0364,2.0419,2.0438,2.0513,2.0518,2.0568,2.0662,2.0701,2.0732,2.0817,2.0818,2.0834,2.0868,2.0913,2.0922,2.093,2.096,2.097,2.0841,2.0841,2.0841,0,2.0165,2.0245,2.0266,2.0324,2.0358,2.0365,2.0425,2.046,2.0529,2.0553,2.0539,2.0658,2.0695,2.0784,2.0805,2.0831,2.0848,2.0827,2.0919,2.0927,2.0935,2.0964,2.0975,2.0843,2.0842,2.0842,2.0842,0,2.0269,2.0325,2.0366,2.0431,2.047,2.0529,2.056,2.0597,2.0607,2.0632,2.0709,2.0753,2.0816,2.0838,2.0849,2.093,2.0921,2.0913,2.0889,2.0946,2.0974,2.0985,2.0845,2.0844,2.0844,2.0843,0,0,2.0343,2.042,2.0435,2.0465,2.0526,2.057,2.063,2.069,2.0722,2.077,2.0821,2.0901,2.0894,2.093,2.0946,2.0985,2.1049,2.0973,2.0974,2.0985,2.1141,2.1147,2.1159,2.1051,2.1053,2.1055,2.1137,0,2.0418,2.0523,2.0544,2.0635,2.0688,2.0696,2.0748,2.0792,2.0818,2.0867,2.0896,2.0952,2.0939,2.0961,2.1001,2.1033,2.1081,2.1028,2.11,2.1102,2.1085,2.1173,2.1179,2.1254,2.1148,2.115,2.1151,0,2.0519,2.0568,2.0664,2.0719,2.0741,2.0788,2.0845,2.0892,2.0942,2.0959,2.0999,2.101,2.1074,2.1047,2.1135,2.1099,2.113,2.115,2.1154,2.1161,2.1129,2.1183,2.1278,2.1289,2.1168,2.1167,2.1166,0,2.0563,2.0654,2.0723,2.0749,2.0814,2.0847,2.0875,2.0924,2.0959,2.101,2.1033,2.1092,2.1123,2.1169,2.1196,2.1174,2.1282,2.1257,2.1298,2.1297,2.132,2.1318,2.1421,2.1341,2.1341,2.134,2.134,0,2.0644,2.0702,2.0744,2.0787,2.0853,2.0878,2.0943,2.0972,2.1015,2.1065,2.1076,2.1122,2.1155,2.1207,2.1228,2.1298,2.1313,2.1328,2.1333,2.1327,2.1325,2.1347,2.1342,2.1343,2.1343,2.1342,2.1342,0,2.0704,2.0734,2.081,2.0866,2.0881,2.0928,2.0976,2.1018,2.1045,2.1107,2.1123,2.1165,2.1226,2.1257,2.1334,2.1349,2.1427,2.143,2.141,2.1412,2.145,2.1446,2.1571,2.1588,2.1497,2.1498,2.1498,0,2.0753,2.0798,2.0859,2.0892,2.0921,2.0975,2.1011,2.1038,2.1076,2.1137,2.1172,2.1233,2.1284,2.1381,2.1419,2.1477,2.1481,2.1521,2.149,2.1482,2.1481,2.1478,2.1482,2.1526,2.1527,2.1527,2.1528,0,2.0837,2.085,2.0901,2.0958,2.1,2.1046,2.1092,2.1119,2.1154,2.1196,2.1257,2.1297,2.1374,2.1435,2.1497,2.1528,2.1534,2.1538,2.155,2.1543,2.153,2.1537,2.1424,2.1534,2.1534,2.1533,2.1533,2.1533,2.0893,2.0933,2.0982,2.1039,2.1076,2.1119,2.1161,2.1193,2.1245,2.131,2.1323,2.1389,2.1439,2.1523,2.1556,2.1608,2.16,2.1618,2.1622,2.1626,2.1628,2.1522,2.162,2.162,2.1619,2.1619,2.1619,0,2.0977,2.1009,2.1061,2.1124,2.1169,2.1171,2.1222,2.1259,2.1317,2.1363,2.1412,2.1484,2.1543,2.1586,2.1647,2.1681,2.1685,2.1696,2.1693,2.17,2.1632,2.1615,2.1691,2.1691,2.1691,2.1691,2.1691,2.1691,2.1026,2.1094,2.1113,2.1201,2.1234,2.1297,2.1326,2.1366,2.1403,2.1482,2.1531,2.1559,2.1604,2.1668,2.1723,2.1734,2.1756,2.1766,2.1778,2.1713,2.1705,2.1698,2.1682,2.1771,2.1771,2.1842,2.1842,2.1843]},{"header":{"parameterUnit":"m.s-1","parameterCategory":1,"la1":30.2991,"la2":30.254,"lo1":-89.0895,"lo2":-89.0444,"dy":0.0017,"dx":0.0017,"nx":28,"ny":28,"refTime":"2024-08-01T09:00:00:Z","depth":0,"parameterNumber":3,"parameterNumberName":"V-component_of_WINDS"},"data":[0,0,0,0,0,0,0,0,0,0,0,0,0,0,0,0,0,0,0,0,0,0,0,0,0,0,0,0,0,0,0,0,0,0,0,0,0,0,0,0,0,0,0,0,0,0,0,0,0,0,0,0,0,0,0,0,0,0,4.2982,4.2983,0,4.3102,4.3104,4.3105,4.3086,4.3084,4.3082,4.308,4.3197,4.3202,4.3207,0,0,0,0,0,0,0,0,0,0,0,0,0,4.2728,4.2733,4.2982,4.2983,4.2985,4.3102,4.3104,4.3105,4.3087,4.3084,4.3082,4.3079,4.3195,4.3201,4.3207,0,0,0,0,0,0,0,0,0,0,0,0,0,4.2842,4.2734,4.2982,4.299,4.2992,4.3102,4.3104,4.3106,4.3087,4.3084,4.3081,4.3078,4.3193,4.3201,4.3208,4.3315,0,0,4.3231,4.3234,0,0,0,0,0,0,0,0,4.2836,4.2851,4.2987,4.299,4.2992,4.3076,4.3057,4.3176,4.3088,4.3051,4.308,4.3077,4.3159,4.3169,4.3198,4.3321,4.3326,4.3232,4.3236,4.324,4.3242,0,0,0,0,0,0,0,4.2828,4.2846,4.3029,4.2989,4.2992,4.2985,4.2998,4.3079,4.312,4.3054,4.3053,4.3068,4.316,4.3191,4.3201,4.3328,4.3232,4.3238,4.3243,4.3246,4.354,4.3543,0,0,0,0,0,0,4.2819,4.284,4.3025,4.3033,4.2905,4.2992,4.3006,4.3052,4.3119,4.3127,4.307,4.3066,4.318,4.3192,4.3205,4.3332,4.3239,4.3246,4.3251,4.3537,4.3541,4.3544,0,0,0,0,0,0,4.2813,4.2835,4.3021,4.2936,4.2959,4.3,4.3051,4.3056,4.3088,4.3132,4.3138,4.3095,4.3178,4.3194,4.3288,4.3336,4.325,4.3257,4.3533,4.3538,4.3542,4.3589,0,0,0,0,0,0,4.2806,4.2834,4.2877,4.2937,4.2964,4.3104,4.3054,4.3061,4.3101,4.3097,4.3157,4.3164,4.3177,4.3276,4.3295,4.3345,4.3263,4.3528,4.3535,4.3541,4.3584,4.3595,4.3605,0,0,0,0,0,4.2797,4.2885,4.2879,4.2902,4.3019,4.3107,4.3122,4.3137,4.3105,4.3148,4.3175,4.3162,4.3328,4.3286,4.3307,4.336,4.3525,4.3533,4.354,4.3579,4.3593,4.3605,0,0,0,0,0,0,4.2828,4.2893,4.2888,4.2998,4.3047,4.3104,4.3158,4.3152,4.321,4.3203,4.3217,4.323,4.3324,4.3351,4.3304,4.3465,4.3422,4.3434,4.3444,4.3458,4.3469,4.346,4.3269,0,0,0,0,0,4.2848,4.2916,4.2969,4.3061,4.3086,4.3118,4.3157,4.3164,4.3214,4.3234,4.3269,4.3317,4.3379,4.342,4.348,4.3587,4.3598,4.3634,4.3644,4.3653,4.3663,4.3718,4.3733,4.3569,4.3569,4.3568,0,0,4.2889,4.2933,4.2975,4.3068,4.3107,4.3174,4.3135,4.3209,4.3258,4.3245,4.3335,4.3362,4.3416,4.3516,4.3561,4.3541,4.3711,4.3663,4.3669,4.3674,4.3727,4.3743,4.3756,4.3574,4.3573,4.3572,0,0,4.2999,4.3041,4.3121,4.316,4.322,4.324,4.3259,4.3316,4.3334,4.3425,4.3415,4.3473,4.3581,4.3619,4.3652,4.3773,4.3761,4.3792,4.3848,4.3902,4.3915,4.3926,4.3967,4.3981,4.3802,4.3802,4.3802,0,4.3042,4.3146,4.3162,4.3237,4.3276,4.3268,4.3347,4.3384,4.3459,4.3485,4.3462,4.3596,4.3632,4.3738,4.3768,4.3796,4.3815,4.3785,4.3912,4.3924,4.3935,4.3973,4.3989,4.3805,4.3805,4.3804,4.3804,0,4.3195,4.3267,4.3324,4.3398,4.3444,4.352,4.3544,4.3588,4.359,4.3612,4.3702,4.3745,4.3812,4.3838,4.3841,4.3945,4.393,4.3909,4.3866,4.3953,4.399,4.4005,4.3809,4.3808,4.3807,4.3807,0,0,4.3328,4.3409,4.343,4.3462,4.3526,4.358,4.3654,4.3722,4.3758,4.3809,4.387,4.396,4.3941,4.3978,4.3985,4.4032,4.4121,4.4005,4.4006,4.4023,4.4234,4.4249,4.4266,4.4114,4.4117,4.4119,4.4229,0,4.3442,4.3577,4.3591,4.3709,4.3774,4.3765,4.3829,4.3874,4.3895,4.395,4.3973,4.4036,4.4007,4.4029,4.4076,4.4101,4.4163,4.4093,4.4167,4.417,4.4153,4.4285,4.4301,4.4403,4.4244,4.4246,4.4248,0,4.3594,4.3651,4.3776,4.3828,4.3856,4.3914,4.3974,4.4029,4.4077,4.4089,4.413,4.413,4.4202,4.4157,4.4255,4.4207,4.4238,4.4254,4.4258,4.4265,4.4214,4.4293,4.4436,4.4451,4.4271,4.4269,4.4268,0,4.3676,4.3784,4.3871,4.39,4.3964,4.4004,4.4032,4.4078,4.4116,4.4168,4.4193,4.4252,4.4285,4.4329,4.4343,4.4309,4.444,4.4396,4.4449,4.4449,4.4477,4.4475,4.4625,4.4499,4.4499,4.4499,4.4498,0,4.3801,4.3877,4.3909,4.3963,4.4046,4.4061,4.4142,4.4168,4.4208,4.4264,4.426,4.4312,4.4329,4.4383,4.4394,4.4472,4.4487,4.4496,4.4498,4.4496,4.4495,4.4516,4.4508,4.4503,4.4502,4.4501,4.45,0,4.3907,4.3932,4.4026,4.4079,4.4094,4.4153,4.4196,4.4246,4.4266,4.4337,4.4354,4.4384,4.4448,4.4466,4.4542,4.4549,4.464,4.4636,4.4624,4.4624,4.4675,4.4669,4.4843,4.4865,4.4726,4.4728,4.4729,0,4.3985,4.4043,4.4102,4.414,4.417,4.4232,4.4271,4.4286,4.4326,4.4385,4.4427,4.449,4.4541,4.4641,4.4668,4.4725,4.4721,4.4778,4.4729,4.4725,4.4719,4.4715,4.472,4.4787,4.4788,4.4789,4.479,0,4.4119,4.4128,4.4186,4.4247,4.4294,4.4343,4.439,4.442,4.4442,4.4487,4.4552,4.4592,4.4669,4.473,4.4787,4.4812,4.4804,4.4805,4.482,4.4818,4.4808,4.4812,4.4647,4.4801,4.48,4.4799,4.4799,4.4798,4.4212,4.4262,4.4311,4.4374,4.4411,4.4454,4.4503,4.4529,4.4585,4.465,4.4655,4.4724,4.4767,4.4844,4.4872,4.4925,4.4908,4.493,4.4935,4.494,4.4943,4.4801,4.4935,4.4935,4.4935,4.4934,4.4934,0,4.4344,4.4375,4.4433,4.4499,4.4548,4.4538,4.4588,4.4629,4.4691,4.4733,4.4783,4.4856,4.4915,4.4946,4.5003,4.5039,4.5036,4.5053,4.505,4.5056,4.4956,4.4937,4.5055,4.5054,4.5054,4.5054,4.5054,4.5054,4.4419,4.4503,4.4517,4.4617,4.4646,4.4716,4.4745,4.4784,4.4817,4.49,4.4949,4.4969,4.5006,4.5066,4.5118,4.5125,4.5145,4.5164,4.5169,4.5075,4.5063,4.5051,4.5033,4.5169,4.5169,4.5264,4.5265,4.5265]}]]